KE4OGG Weather Reports


Display with metric or nautical units.
time (UTC)temp
F
wind
direction
speed
MPH
gust
MPH
rain 1hr
in
rain 24hr
in
rain mn
in
humidity
%
barometer
mb
20260905165021 95 86 1.0 5.0 0.00 0.00 0.00 38 1014.3
20260905164548 95 89 2.0 7.0 0.00 0.00 0.00 38 1014.3
20260905164025 95 94 2.0 7.0 0.00 0.00 0.00 39 1014.5
20260905163528 95 90 5.0 7.0 0.00 0.00 0.00 37 1014.6
20260905163045 96 117 1.0 4.0 0.00 0.00 0.00 37 1014.8
20260905162526 96 162 1.0 4.0 0.00 0.00 0.00 38 1014.7
20260905162026 95 172 0.0 5.0 0.00 0.00 0.00 41 1014.9
20260905161545 96 311 0.0 5.0 0.00 0.00 0.00 37 1015.0
20260905161025 95 100 0.0 5.0 0.00 0.00 0.00 41 1014.8
20260905160521 94 285 0.0 2.0 0.00 0.00 0.00 41 1014.8
20260905160047 95 293 0.0 3.0 0.00 0.00 0.00 40 1014.9
20260905155525 95 0 0.0 3.0 0.00 0.00 0.00 40 1015.0
20260905155026 95 0 0.0 1.0 0.00 0.00 0.00 39 1015.1
20260905154554 95 0 0.0 2.0 0.00 0.00 0.00 39 1015.1
20260905154026 95 143 0.0 2.0 0.00 0.00 0.00 41 1015.1
20260905153528 94 29 1.0 2.0 0.00 0.00 0.00 41 1015.2
20260905153046 94 6 0.0 2.0 0.00 0.00 0.00 43 1015.3
20260905152526 92 0 0.0 3.0 0.00 0.00 0.00 46 1015.3
20260905152025 91 0 1.0 3.0 0.00 0.00 0.00 47 1015.3
20260905151549 91 278 0.0 2.0 0.00 0.00 0.00 44 1015.3
20260905151021 92 0 0.0 1.0 0.00 0.00 0.00 47 1015.3
20260905150527 90 0 0.0 1.0 0.00 0.00 0.00 49 1015.3
20260905150055 90 267 0.0 2.0 0.00 0.00 0.00 48 1015.4
20260905145528 91 26 0.0 2.0 0.00 0.00 0.00 49 1015.4
20260905145025 91 290 0.0 3.0 0.00 0.00 0.00 49 1015.4
20260905144549 90 0 0.0 3.0 0.00 0.00 0.00 50 1015.3
20260905144026 90 273 0.0 3.0 0.00 0.00 0.00 53 1015.4
20260905143524 89 286 0.0 1.0 0.00 0.00 0.00 59 1015.4
20260905143049 88 0 0.0 2.0 0.00 0.00 0.00 60 1015.4
20260905142524 87 0 0.0 2.0 0.00 0.00 0.00 64 1015.4
20260905142022 85 286 0.0 2.0 0.00 0.00 0.00 64 1015.4
20260905141544 85 0 1.0 2.0 0.00 0.00 0.00 62 1015.5
20260905141026 85 294 0.0 2.0 0.00 0.00 0.00 64 1015.5
20260905140524 86 290 0.0 1.0 0.00 0.00 0.00 65 1015.6
20260905140048 85 295 0.0 1.0 0.00 0.00 0.00 66 1015.6
20260905135521 84 0 0.0 1.0 0.00 0.00 0.00 67 1015.7
20260905135025 83 0 0.0 3.0 0.00 0.00 0.00 67 1015.8
20260905134552 83 0 0.0 3.0 0.00 0.00 0.00 68 1015.9
20260905134024 82 0 0.0 3.0 0.00 0.00 0.00 69 1015.9
20260905133529 81 0 0.0 2.0 0.00 0.00 0.00 69 1015.9
20260905133043 82 0 0.0 1.0 0.00 0.00 0.00 69 1015.8
20260905132524 82 0 0.0 1.0 0.00 0.00 0.00 70 1015.8
20260905132031 81 0 0.0 1.0 0.00 0.00 0.00 71 1015.8
20260905131550 80 0 0.0 1.0 0.00 0.00 0.00 73 1015.7
20260905131026 78 0 0.0 1.0 0.00 0.00 0.00 75 1015.6
20260905130525 77 0 0.0 1.0 0.00 0.00 0.00 75 1015.7
20260905130048 76 0 0.0 1.0 0.00 0.00 0.00 76 1015.6
20260905125529 76 0 0.0 1.0 0.00 0.00 0.00 76 1015.6
20260905125025 76 0 0.0 0.0 0.00 0.00 0.00 77 1015.6
20260905124547 76 0 0.0 0.0 0.00 0.00 0.00 77 1015.5
20260905124025 75 0 0.0 0.0 0.00 0.00 0.00 78 1015.6
20260905123523 75 0 0.0 0.0 0.00 0.00 0.00 80 1015.5
20260905123046 75 0 0.0 0.0 0.00 0.00 0.00 81 1015.6
20260905122525 75 0 0.0 0.0 0.00 0.00 0.00 83 1015.6
20260905122022 74 0 0.0 0.0 0.00 0.00 0.00 84 1015.6
20260905121548 74 0 0.0 0.0 0.00 0.00 0.00 84 1015.6
20260905121028 74 0 0.0 0.0 0.00 0.00 0.00 84 1015.5
20260905120522 74 0 0.0 0.0 0.00 0.00 0.00 84 1015.4
20260905120046 74 0 0.0 0.0 0.00 0.00 0.00 85 1015.3
20260905115523 74 0 0.0 0.0 0.00 0.00 0.00 85 1015.3
20260905115024 73 0 0.0 0.0 0.00 0.00 0.00 85 1015.2
20260905114546 73 0 0.0 0.0 0.00 0.00 0.00 85 1015.2
20260905114025 73 0 0.0 0.0 0.00 0.00 0.00 85 1015.2
20260905113526 73 0 0.0 0.0 0.00 0.00 0.00 85 1015.2
20260905113042 73 0 0.0 0.0 0.00 0.00 0.00 85 1015.1
20260905112525 73 0 0.0 0.0 0.00 0.00 0.00 85 1015.0
20260905112024 73 0 0.0 0.0 0.00 0.00 0.00 84 1014.9
20260905111619 73 0 0.0 0.0 0.00 0.00 0.00 85 1014.8
20260905111025 73 0 0.0 0.0 0.00 0.00 0.00 85 1014.8
20260905110525 73 0 0.0 0.0 0.00 0.00 0.00 85 1014.7
20260905110045 73 0 0.0 0.0 0.00 0.00 0.00 85 1014.7
20260905105525 73 0 0.0 0.0 0.00 0.00 0.00 85 1014.7
20260905105026 73 0 0.0 0.0 0.00 0.00 0.00 85 1014.6
20260905104544 73 0 0.0 0.0 0.00 0.00 0.00 85 1014.5
20260905104023 73 0 0.0 0.0 0.00 0.00 0.00 85 1014.6
20260905103524 73 0 0.0 0.0 0.00 0.00 0.00 85 1014.6
20260905103043 73 0 0.0 0.0 0.00 0.00 0.00 85 1014.5
20260905102527 73 0 0.0 0.0 0.00 0.00 0.00 85 1014.5
20260905102024 74 0 0.0 0.0 0.00 0.00 0.00 85 1014.5
20260905101547 74 0 0.0 0.0 0.00 0.00 0.00 85 1014.5
20260905101026 74 0 0.0 0.0 0.00 0.00 0.00 85 1014.5
20260905100525 74 0 0.0 0.0 0.00 0.00 0.00 85 1014.4
20260905100057 74 0 0.0 0.0 0.00 0.00 0.00 85 1014.4
20260905095525 74 0 0.0 0.0 0.00 0.00 0.00 85 1014.4
20260905095025 74 0 0.0 0.0 0.00 0.00 0.00 85 1014.5
20260905094547 74 0 0.0 0.0 0.00 0.00 0.00 85 1014.4
20260905094028 74 0 0.0 0.0 0.00 0.00 0.00 85 1014.4
20260905093522 74 0 0.0 0.0 0.00 0.00 0.00 85 1014.4
20260905093043 74 0 0.0 0.0 0.00 0.00 0.00 84 1014.5
20260905092521 74 0 0.0 0.0 0.00 0.00 0.00 84 1014.6
20260905092024 74 0 0.0 0.0 0.00 0.00 0.00 84 1014.5
20260905091556 74 0 0.0 0.0 0.00 0.00 0.00 83 1014.6
20260905091025 74 0 0.0 0.0 0.00 0.00 0.00 83 1014.6
20260905090524 74 0 0.0 0.0 0.00 0.00 0.00 83 1014.7
20260905090044 74 0 0.0 0.0 0.00 0.00 0.00 82 1014.8
20260905085530 74 0 0.0 0.0 0.00 0.00 0.00 81 1014.6
20260905085024 74 0 0.0 0.0 0.00 0.00 0.00 80 1014.5
20260905084551 75 0 0.0 0.0 0.00 0.00 0.00 79 1014.4
20260905084023 75 0 0.0 0.0 0.00 0.00 0.00 79 1014.5
20260905083524 75 0 0.0 0.0 0.00 0.00 0.00 79 1014.5
20260905083042 75 0 0.0 0.0 0.00 0.00 0.00 79 1014.6
20260905082524 75 0 0.0 0.0 0.00 0.00 0.00 79 1014.6
20260905082030 75 0 0.0 0.0 0.00 0.00 0.00 79 1014.7
20260905081547 75 0 0.0 0.0 0.00 0.00 0.00 78 1014.7
20260905081024 75 0 0.0 0.0 0.00 0.00 0.00 78 1014.8
20260905080524 76 0 0.0 0.0 0.00 0.00 0.00 78 1014.9
20260905080053 76 0 0.0 0.0 0.00 0.00 0.00 78 1014.9
20260905075528 76 0 0.0 0.0 0.00 0.00 0.00 78 1014.9
20260905075028 76 0 0.0 0.0 0.00 0.00 0.00 78 1015.1
20260905074544 76 0 0.0 0.0 0.00 0.00 0.00 78 1015.0
20260905074028 76 0 0.0 0.0 0.00 0.00 0.00 78 1015.1
20260905073523 76 0 0.0 0.0 0.00 0.00 0.00 76 1015.2
20260905073043 76 0 0.0 0.0 0.00 0.00 0.00 76 1015.2
20260905072524 76 0 0.0 0.0 0.00 0.00 0.00 76 1015.1
20260905072024 76 0 0.0 0.0 0.00 0.00 0.00 75 1015.1
20260905071554 76 0 0.0 0.0 0.00 0.00 0.00 75 1015.1
20260905071026 76 0 0.0 0.0 0.00 0.00 0.00 75 1015.1
20260905070524 76 0 0.0 0.0 0.00 0.00 0.00 75 1015.2
20260905070046 76 0 0.0 0.0 0.00 0.00 0.00 75 1015.2
20260905065525 76 0 0.0 0.0 0.00 0.00 0.00 74 1015.2
20260905065027 76 0 0.0 0.0 0.00 0.00 0.00 74 1015.4
20260905064547 76 0 0.0 0.0 0.00 0.00 0.00 73 1015.4
20260905064023 77 0 0.0 0.0 0.00 0.00 0.00 72 1015.4
20260905063522 77 0 0.0 0.0 0.00 0.00 0.00 71 1015.4
20260905063053 77 0 0.0 0.0 0.00 0.00 0.00 71 1015.4
20260905062525 77 0 0.0 2.0 0.00 0.00 0.00 70 1015.4
20260905062025 77 0 0.0 2.0 0.00 0.00 0.00 71 1015.4
20260905061604 77 306 1.0 2.0 0.00 0.00 0.00 70 1015.5
20260905061024 78 306 0.0 0.0 0.00 0.00 0.00 69 1015.6
20260905060529 78 0 0.0 0.0 0.00 0.00 0.00 69 1015.5
20260905060046 78 0 0.0 0.0 0.00 0.00 0.00 69 1015.6
20260905055525 78 0 0.0 0.0 0.00 0.00 0.00 69 1015.4
20260905055025 78 0 0.0 0.0 0.00 0.00 0.00 68 1015.5
20260905054544 78 0 0.0 0.0 0.00 0.00 0.00 68 1015.6
20260905054025 78 0 0.0 0.0 0.00 0.00 0.00 67 1015.6
20260905053523 78 0 0.0 0.0 0.00 0.00 0.00 67 1015.8
20260905053045 78 0 0.0 0.0 0.00 0.00 0.00 67 1015.7
20260905052524 78 0 0.0 0.0 0.00 0.00 0.00 66 1015.6
20260905052024 79 0 0.0 0.0 0.00 0.00 0.00 66 1015.7
20260905051548 79 0 0.0 0.0 0.00 0.00 0.00 66 1015.7
20260905051024 79 0 0.0 0.0 0.00 0.00 0.00 66 1015.7
20260905050525 79 0 0.0 0.0 0.00 0.00 0.00 65 1015.6
20260905050047 79 0 0.0 0.0 0.00 0.00 0.00 66 1015.8
20260905045524 79 0 0.0 0.0 0.00 0.00 0.00 66 1015.8
20260905045026 79 0 0.0 0.0 0.00 0.00 0.00 66 1015.7
20260905044546 79 0 0.0 0.0 0.00 0.00 0.00 66 1015.7
20260905044023 79 0 0.0 0.0 0.00 0.00 0.00 66 1015.6
20260905043524 79 0 0.0 0.0 0.00 0.00 0.00 66 1015.7
20260905043042 79 0 0.0 0.0 0.00 0.00 0.00 66 1015.8
20260905042525 79 0 0.0 0.0 0.00 0.00 0.00 65 1015.8
20260905042024 79 0 0.0 0.0 0.00 0.00 0.00 65 1015.8
20260905041551 79 0 0.0 0.0 0.00 0.00 0.00 65 1015.9
20260905041022 80 0 0.0 0.0 0.00 0.00 0.00 65 1016.0
20260905040524 80 0 0.0 0.0 0.00 0.00 0.00 64 1016.1
20260905040045 80 0 0.0 0.0 0.00 0.00 0.00 64 1016.2
20260905035523 80 0 0.0 0.0 0.00 0.00 0.00 64 1016.2
20260905035023 81 0 0.0 0.0 0.00 0.00 0.00 63 1016.2
20260905034545 81 0 0.0 0.0 0.00 0.00 0.00 63 1016.2
20260905034022 81 0 0.0 0.0 0.00 0.00 0.00 63 1016.2
20260905033525 81 0 0.0 0.0 0.00 0.00 0.00 63 1016.2
20260905033044 81 0 0.0 0.0 0.00 0.00 0.00 62 1016.3
20260905032522 82 0 0.0 0.0 0.00 0.00 0.00 62 1016.2
20260905032024 82 0 0.0 0.0 0.00 0.00 0.00 62 1016.2
20260905031547 82 0 0.0 0.0 0.00 0.00 0.00 62 1016.2
20260905031023 82 0 0.0 0.0 0.00 0.00 0.00 62 1016.1
20260905030524 82 0 0.0 0.0 0.00 0.00 0.00 62 1016.3
20260905030050 82 0 0.0 0.0 0.00 0.00 0.00 62 1016.3
20260905025521 82 0 0.0 0.0 0.00 0.00 0.00 61 1016.4
20260905025025 82 0 0.0 0.0 0.00 0.00 0.00 61 1016.4
20260905024543 82 0 0.0 0.0 0.00 0.00 0.00 61 1016.4
20260905024024 82 0 0.0 0.0 0.00 0.00 0.00 61 1016.3
20260905023523 83 0 0.0 0.0 0.00 0.00 0.00 60 1016.4
20260905023043 83 0 0.0 0.0 0.00 0.00 0.00 60 1016.4
20260905022524 83 0 0.0 0.0 0.00 0.00 0.00 60 1016.4
20260905022024 83 0 0.0 0.0 0.00 0.00 0.00 59 1016.5
20260905021547 83 0 0.0 0.0 0.00 0.00 0.00 58 1016.5
20260905021024 84 0 0.0 0.0 0.00 0.00 0.00 58 1016.5
20260905020524 84 0 0.0 0.0 0.00 0.00 0.00 58 1016.4
20260905020058 84 0 0.0 0.0 0.00 0.00 0.00 57 1016.3
20260905015523 85 0 0.0 0.0 0.00 0.00 0.00 57 1016.4
20260905015026 85 306 0.0 0.0 0.00 0.00 0.00 57 1016.4
20260905014547 85 0 0.0 0.0 0.00 0.00 0.00 56 1016.4
20260905014024 85 0 0.0 0.0 0.00 0.00 0.00 56 1016.4
20260905013523 85 0 0.0 0.0 0.00 0.00 0.00 56 1016.4
20260905013043 85 0 0.0 0.0 0.00 0.00 0.00 56 1016.4
20260905012521 85 0 0.0 0.0 0.00 0.00 0.00 55 1016.3
20260905012024 85 0 0.0 0.0 0.00 0.00 0.00 55 1016.4
20260905011548 86 0 0.0 0.0 0.00 0.00 0.00 55 1016.4
20260905011023 86 0 0.0 0.0 0.00 0.00 0.00 54 1016.2
20260905010524 86 0 0.0 0.0 0.00 0.00 0.00 53 1016.2
20260905010055 87 0 0.0 0.0 0.00 0.00 0.00 53 1016.2
20260905005529 87 0 0.0 1.0 0.00 0.00 0.00 52 1016.1
20260905005027 87 0 0.0 1.0 0.00 0.00 0.00 51 1016.0
20260905004606 88 310 0.0 1.0 0.00 0.00 0.00 51 1016.0
20260905004023 88 0 0.0 1.0 0.00 0.00 0.00 50 1016.0
20260905003522 88 0 0.0 1.0 0.00 0.00 0.00 50 1016.0
20260905003043 88 0 0.0 1.0 0.00 0.00 0.00 50 1016.0
20260905002526 88 0 0.0 0.0 0.00 0.00 0.00 49 1016.0
20260905002027 88 0 0.0 0.0 0.00 0.00 0.00 49 1016.0
20260905001548 88 0 0.0 0.0 0.00 0.00 0.00 49 1015.8
20260905001031 88 0 0.0 0.0 0.00 0.00 0.00 48 1015.7
20260905000526 88 0 0.0 0.0 0.00 0.00 0.00 48 1015.6
20260905000046 89 0 0.0 0.0 0.00 0.00 0.00 47 1015.6
20260904235526 89 0 0.0 0.0 0.00 0.00 0.00 47 1015.6
20260904235027 89 0 0.0 0.0 0.00 0.00 0.00 46 1015.5
20260904234546 89 0 0.0 0.0 0.00 0.00 0.00 46 1015.5
20260904234023 90 0 0.0 0.0 0.00 0.00 0.00 45 1015.5
20260904233524 90 0 0.0 0.0 0.00 0.00 0.00 44 1015.5
20260904233053 91 0 0.0 0.0 0.00 0.00 0.00 43 1015.5
20260904232525 91 0 0.0 0.0 0.00 0.00 0.00 43 1015.4
20260904232025 91 0 0.0 0.0 0.00 0.00 0.00 42 1015.4
20260904231548 92 0 0.0 0.0 0.00 0.00 0.00 42 1015.4
20260904231026 92 0 0.0 0.0 0.00 0.00 0.00 41 1015.4
20260904230530 92 0 0.0 0.0 0.00 0.00 0.00 41 1015.3
20260904230047 92 0 0.0 1.0 0.00 0.00 0.00 41 1015.3
20260904225525 93 0 0.0 1.0 0.00 0.00 0.00 40 1015.3
20260904225024 93 0 0.0 1.0 0.00 0.00 0.00 41 1015.2
20260904224549 93 93 0.0 3.0 0.00 0.00 0.00 40 1015.3
20260904224026 93 94 1.0 3.0 0.00 0.00 0.00 39 1015.2
20260904223524 93 93 0.0 5.0 0.00 0.00 0.00 39 1015.2
20260904223043 93 93 2.0 7.0 0.00 0.00 0.00 38 1015.2
20260904222524 94 91 2.0 7.0 0.00 0.00 0.00 38 1015.2
20260904222024 94 96 3.0 7.0 0.00 0.00 0.00 37 1015.2
20260904221552 94 0 1.0 4.0 0.00 0.00 0.00 37 1015.2
20260904221026 95 97 1.0 4.0 0.00 0.00 0.00 37 1015.2
20260904220526 95 133 0.0 3.0 0.00 0.00 0.00 36 1015.2
20260904220047 95 138 1.0 3.0 0.00 0.00 0.00 36 1015.2
20260904215525 95 94 1.0 3.0 0.00 0.00 0.00 34 1015.2
20260904215031 95 0 0.0 6.0 0.00 0.00 0.00 37 1015.2
20260904214543 94 105 1.0 6.0 0.00 0.00 0.00 37 1015.3
20260904214024 94 105 3.0 6.0 0.00 0.00 0.00 35 1015.2
20260904213526 94 0 0.0 2.0 0.00 0.00 0.00 37 1015.3
20260904213043 94 122 0.0 5.0 0.00 0.00 0.00 36 1015.3
20260904212522 94 0 1.0 5.0 0.00 0.00 0.00 37 1015.4
20260904212021 95 80 1.0 5.0 0.00 0.00 0.00 36 1015.4
20260904211549 95 108 1.0 5.0 0.00 0.00 0.00 36 1015.5
20260904211028 95 91 2.0 5.0 0.00 0.00 0.00 36 1015.4
20260904210524 95 63 1.0 5.0 0.00 0.00 0.00 36 1015.5
20260904210051 95 0 2.0 5.0 0.00 0.00 0.00 38 1015.5
20260904205529 95 0 0.0 5.0 0.00 0.00 0.00 38 1015.5
20260904205023 95 185 2.0 5.0 0.00 0.00 0.00 36 1015.7
20260904204548 95 88 2.0 6.0 0.00 0.00 0.00 36 1015.7
20260904204025 95 102 3.0 7.0 0.00 0.00 0.00 36 1015.8
20260904203523 95 99 2.0 7.0 0.00 0.00 0.00 37 1015.7
20260904203043 95 109 2.0 7.0 0.00 0.00 0.00 35 1015.8
20260904202541 95 124 3.0 7.0 0.00 0.00 0.00 36 1015.8
20260904202025 96 119 0.0 7.0 0.00 0.00 0.00 36 1016.1
20260904201550 95 101 2.0 8.0 0.00 0.00 0.00 35 1016.1
20260904201025 96 135 2.0 8.0 0.00 0.00 0.00 35 1016.1
20260904200528 96 94 3.0 8.0 0.00 0.00 0.00 34 1016.1
20260904200047 96 268 0.0 6.0 0.00 0.00 0.00 35 1016.1
20260904195527 96 105 2.0 7.0 0.00 0.00 0.00 36 1016.2
20260904195024 97 127 3.0 7.0 0.00 0.00 0.00 36 1016.3
20260904194544 97 333 1.0 6.0 0.00 0.00 0.00 36 1016.4
20260904194025 96 89 1.0 8.0 0.00 0.00 0.00 38 1016.5
20260904193524 96 96 3.0 8.0 0.00 0.00 0.00 37 1016.6
20260904193052 95 213 3.0 9.0 0.00 0.00 0.00 36 1016.7
20260904192525 95 83 5.0 9.0 0.00 0.00 0.00 37 1016.7
20260904192025 95 93 2.0 7.0 0.00 0.00 0.00 35 1016.9
20260904191548 95 0 3.0 7.0 0.00 0.00 0.00 39 1017.2
20260904191025 96 88 2.0 7.0 0.00 0.00 0.00 36 1017.2
20260904190525 96 84 2.0 8.0 0.00 0.00 0.00 38 1017.3
20260904190047 95 290 1.0 8.0 0.00 0.00 0.00 38 1017.4
20260904185526 95 115 1.0 7.0 0.00 0.00 0.00 39 1017.3
20260904185025 95 116 4.0 7.0 0.00 0.00 0.00 36 1017.3
20260904184548 95 88 2.0 8.0 0.00 0.00 0.00 38 1017.2
20260904184025 95 262 0.0 10.0 0.00 0.00 0.00 38 1017.2
20260904183524 95 83 4.0 10.0 0.00 0.00 0.00 39 1017.2
20260904183050 95 118 2.0 6.0 0.00 0.00 0.00 37 1017.3
20260904182528 95 295 1.0 7.0 0.00 0.00 0.00 37 1017.4
20260904182028 95 316 0.0 7.0 0.00 0.00 0.00 37 1017.5
20260904181553 95 176 4.0 7.0 0.00 0.00 0.00 37 1017.6
20260904181030 95 307 1.0 7.0 0.00 0.00 0.00 41 1017.6
20260904180526 94 99 4.0 7.0 0.00 0.00 0.00 40 1017.6
20260904180047 94 108 0.0 7.0 0.00 0.00 0.00 42 1017.7
20260904175527 94 121 2.0 7.0 0.00 0.00 0.00 41 1017.8
20260904175024 94 93 2.0 7.0 0.00 0.00 0.00 41 1017.9
20260904174553 93 141 2.0 7.0 0.00 0.00 0.00 41 1017.9
20260904174024 93 117 2.0 7.0 0.00 0.00 0.00 43 1018.0
20260904173523 93 94 3.0 6.0 0.00 0.00 0.00 42 1018.0
20260904173052 94 84 2.0 6.0 0.00 0.00 0.00 43 1018.0
20260904172522 94 141 2.0 4.0 0.00 0.00 0.00 42 1017.9
20260904172024 93 287 1.0 3.0 0.00 0.00 0.00 44 1018.0
20260904171557 93 134 1.0 3.0 0.00 0.00 0.00 44 1018.1
20260904171026 93 293 0.0 5.0 0.00 0.00 0.00 42 1018.1
20260904170528 93 102 0.0 5.0 0.00 0.00 0.00 45 1018.1
20260904170048 92 113 1.0 5.0 0.00 0.00 0.00 47 1018.1
20260904165528 91 0 3.0 5.0 0.00 0.00 0.00 45 1018.2